Location: Beadle
(51.4667°N, 109.0000°W)
Time: 09:41:54
(UTC+00:00)

deb Explorer IX - Pass Details

Date: 31 May 2022
Orbit: 535 x 1068 km, 38.8° (Epoch: 04 July)

Event Time Altitude Azimuth Distance (km) Brightness Sun altitude
Rises 21:39:00 0° 261° (W) 3,688 ? 49.3°
Reaches altitude 10° 21:44:01 10° 229° (SW) 2,604 ? 48.7°
Maximum altitude 21:45:43 11° 213° (SSW) 2,469 ? 48.5°
Drops below altitude 10° 21:47:22 10° 197° (SSW) 2,499 ? 48.2°
Sets 21:51:50 0° 164° (SSE) 3,274 ? 47.6°
